Robstown, TX

6:19 AM CDT on July 28, 2016 (GMT -0500)
Robstown

Weather History for KRBO - June, 2013

Change the Weather History Date:

Friday, June 14, 2013

  Actual Average (KCRP) Record (KCRP)
Temperature  
Mean Temperature 86 °F 82 °F  
Max Temperature 94 °F 91 °F 106 °F (1998)
Min Temperature 79 °F 74 °F 59 °F (1903)
Degree Days  
Heating Degree Days 0 0  
Month to date heating degree days 0  
Since 1 June heating degree days 0  
Since 1 July heating degree days 898  
Cooling Degree Days 21 17  
Month to date cooling degree days 233  
Year to date cooling degree days 1074  
Since 1 June cooling degree days 233  
Growing Degree Days 36 (Base 50)    
Moisture  
Dew Point 76 °F    
Average Humidity 76    
Maximum Humidity 90    
Minimum Humidity 47    
Precipitation  
Precipitation 0.00 in 0.11 in 1.37 in (1974)
Month to date precipitation 1.50  
Year to date precipitation 11.77  
Snow  
Snow 0.00 in - - ()
Month to date snowfall  
Since 1 June snowfall  
Since 1 July snowfall  
Snow Depth -    
Sea Level Pressure  
Sea Level Pressure 29.92 in    
Wind  
Wind Speed 7 mph (SE)    
Max Wind Speed 20 mph    
Max Gust Speed 25 mph    
Visibility 10 miles    
Events      
T = Trace of Precipitation, MM = Missing Value Source: NWS Daily Summary

Daily Weather History Graph

Daily Weather History Graph

Search for Another Location

Airport or City:

Trip Planner

Search our weather history database for the weather conditions in past years. The results will help you decide how hot, cold, wet, or windy it might be!

Date:

Astronomy

Jun. 14, 2013 Rise Set
Actual Time 6:34 AM CDT 8:27 PM CDT
Civil Twilight 6:07 AM CDT 8:54 PM CDT
Nautical Twilight 5:35 AM CDT 9:26 PM CDT
Astronomical Twilight 5:01 AM CDT 10:00 PM CDT
Moon 11:46 AM CDT (6/14) No Moon Set
Length of Visible Light 14h 46m
Length of Day
13h 53m
Waxing Crescent, 30% of the Moon is Illuminated
Jun 14
Waxing Crescent
Jun 16
First Quarter
Jun 23
Full
Jun 29
Last Quarter
Jul 8
New

Hourly Weather History & Observations

Time (CDT) Temp. Heat Index Dew Point Humidity Pressure Visibility Wind Dir Wind Speed Gust Speed Precip Events Conditions
12:15 AM 80.1 °F 85.7 °F 76.5 °F 89% 29.94 in 10.0 mi Calm Calm - N/A   Clear
12:35 AM 80.2 °F 86.0 °F 76.5 °F 88% 29.94 in 10.0 mi ESE 6.9 mph - N/A   Clear
12:55 AM 80.2 °F 86.0 °F 76.5 °F 88% 29.93 in 10.0 mi Calm Calm - N/A   Clear
1:15 AM 80.2 °F 86.0 °F 76.5 °F 88% 29.93 in 10.0 mi SE 5.8 mph - N/A   Clear
1:35 AM 80.2 °F 86.1 °F 76.6 °F 89% 29.93 in 10.0 mi SE 5.8 mph - N/A   Clear
1:55 AM 80.2 °F 86.0 °F 76.5 °F 88% 29.93 in 10.0 mi SE 5.8 mph - N/A   Clear
2:15 AM 80.2 °F 86.0 °F 76.5 °F 88% 29.92 in 10.0 mi SE 5.8 mph - N/A   Clear
2:35 AM 80.1 °F 85.5 °F 76.3 °F 88% 29.93 in 10.0 mi Calm Calm - N/A   Clear
2:55 AM 79.7 °F - 76.1 °F 89% 29.92 in 10.0 mi Calm Calm - N/A   Clear
3:15 AM 79.3 °F - 76.1 °F 90% 29.92 in 10.0 mi Calm Calm - N/A   Clear
3:35 AM 79.0 °F - 75.9 °F 90% 29.92 in 10.0 mi Calm Calm - N/A   Clear
3:55 AM 79.2 °F - 76.1 °F 90% 29.91 in 10.0 mi Calm Calm - N/A   Clear
4:15 AM 79.7 °F - 76.3 °F 89% 29.92 in 10.0 mi Calm Calm - N/A   Scattered Clouds
4:35 AM 79.3 °F - 76.3 °F 90% 29.92 in 10.0 mi Calm Calm - N/A   Scattered Clouds
4:55 AM 79.7 °F - 76.3 °F 89% 29.92 in 10.0 mi Calm Calm - N/A   Scattered Clouds
5:15 AM 79.5 °F - 76.1 °F 89% 29.92 in 10.0 mi Calm Calm - N/A   Scattered Clouds
5:35 AM 79.7 °F - 76.3 °F 89% 29.93 in 10.0 mi Calm Calm - N/A   Clear
5:55 AM 79.9 °F - 76.5 °F 89% 29.93 in 10.0 mi Calm Calm - N/A   Clear
6:15 AM 79.9 °F - 76.3 °F 89% 29.93 in 10.0 mi Calm Calm - N/A   Clear
6:35 AM 79.9 °F - 76.5 °F 89% 29.94 in 10.0 mi ESE 5.8 mph - N/A   Clear
6:55 AM 80.2 °F 86.0 °F 76.5 °F 88% 29.94 in 10.0 mi Calm Calm - N/A   Clear
7:15 AM 80.8 °F 87.2 °F 76.6 °F 87% 29.94 in 10.0 mi SE 5.8 mph - N/A   Clear
7:35 AM 81.1 °F 88.4 °F 77.2 °F 88% 29.95 in 10.0 mi ESE 6.9 mph - N/A   Clear
7:55 AM 81.1 °F 88.4 °F 77.2 °F 88% 29.95 in 10.0 mi Calm Calm - N/A   Clear
8:15 AM 81.5 °F 89.5 °F 77.7 °F 88% 29.95 in 10.0 mi Calm Calm - N/A   Light Drizzle
8:35 AM 82.0 °F 90.8 °F 77.9 °F 87% 29.96 in 10.0 mi SE 10.4 mph - N/A   Light Drizzle
8:55 AM 82.9 °F 92.8 °F 77.9 °F 85% 29.97 in 10.0 mi SE 10.4 mph - N/A   Clear
9:15 AM 83.8 °F 94.3 °F 77.9 °F 82% 29.98 in 10.0 mi SE 11.5 mph - N/A   Scattered Clouds
9:35 AM 84.6 °F 95.1 °F 77.4 °F 79% 29.97 in 10.0 mi SE 12.7 mph - N/A   Scattered Clouds
9:55 AM 85.5 °F 96.3 °F 77.2 °F 76% 29.97 in 10.0 mi SE 13.8 mph - N/A   Clear
10:15 AM 86.7 °F 98.3 °F 77.2 °F 73% 29.97 in 10.0 mi SSE 13.8 mph - N/A   Scattered Clouds
10:35 AM 88.2 °F 101.2 °F 77.5 °F 71% 29.96 in 10.0 mi SE 13.8 mph - N/A   Mostly Cloudy
10:55 AM 89.2 °F 101.8 °F 77.0 °F 67% 29.95 in 10.0 mi SE 16.1 mph 21.9 mph N/A   Mostly Cloudy
11:15 AM 89.4 °F 101.7 °F 76.8 °F 66% 29.95 in 10.0 mi SE 16.1 mph 20.7 mph N/A   Mostly Cloudy
11:35 AM 90.0 °F 101.9 °F 76.5 °F 64% 29.95 in 10.0 mi SE 16.1 mph 21.9 mph N/A   Mostly Cloudy
11:55 AM 90.9 °F 102.4 °F 75.7 °F 61% 29.94 in 10.0 mi SSE 12.7 mph 24.2 mph N/A   Scattered Clouds
12:15 PM 90.7 °F 101.9 °F 75.6 °F 61% 29.94 in 10.0 mi SE 11.5 mph 19.6 mph N/A   Scattered Clouds
12:35 PM 91.4 °F 102.5 °F 75.2 °F 59% 29.93 in 10.0 mi SE 16.1 mph 19.6 mph N/A   Scattered Clouds
12:55 PM 92.3 °F 104.1 °F 75.6 °F 58% 29.93 in 10.0 mi SSE 15.0 mph 24.2 mph N/A   Scattered Clouds
1:15 PM 93.6 °F 105.2 °F 75.4 °F 55% 29.92 in 10.0 mi SSE 15.0 mph 18.4 mph N/A   Scattered Clouds
1:35 PM 93.7 °F 105.0 °F 74.8 °F 54% 29.91 in 10.0 mi South 15.0 mph 21.9 mph N/A   Scattered Clouds
1:55 PM 92.5 °F 102.6 °F 73.9 °F 55% 29.91 in 10.0 mi SSE 13.8 mph 19.6 mph N/A   Scattered Clouds
2:15 PM 93.2 °F 103.7 °F 74.3 °F 54% 29.91 in 10.0 mi SE 15.0 mph 18.4 mph N/A   Scattered Clouds
2:35 PM 93.6 °F 102.5 °F 73.2 °F 51% 29.89 in 10.0 mi SSE 13.8 mph 21.9 mph N/A   Clear
2:55 PM 93.7 °F 100.5 °F 70.9 °F 47% 29.89 in 10.0 mi SSE 15.0 mph 20.7 mph N/A   Clear
3:15 PM 93.9 °F 105.4 °F 75.0 °F 54% 29.88 in 10.0 mi ESE 17.3 mph 23.0 mph N/A   Scattered Clouds
3:35 PM 91.9 °F 103.2 °F 75.2 °F 58% 29.87 in 10.0 mi SE 15.0 mph 24.2 mph N/A   Scattered Clouds
3:55 PM 90.9 °F 101.8 °F 75.2 °F 60% 29.88 in 10.0 mi ESE 17.3 mph 24.2 mph N/A   Scattered Clouds
4:15 PM 90.9 °F 101.8 °F 75.2 °F 60% 29.88 in 10.0 mi SE 16.1 mph 24.2 mph N/A   Scattered Clouds
4:35 PM 90.5 °F 101.5 °F 75.4 °F 61% 29.89 in 10.0 mi ESE 15.0 mph 20.7 mph N/A   Scattered Clouds
4:55 PM 89.4 °F 100.0 °F 75.6 °F 63% 29.89 in 10.0 mi SE 16.1 mph 21.9 mph N/A   Scattered Clouds
5:15 PM 88.7 °F 99.3 °F 75.6 °F 65% 29.89 in 10.0 mi ESE 18.4 mph 23.0 mph N/A   Scattered Clouds
5:35 PM 88.0 °F 98.0 °F 75.4 °F 66% 29.89 in 10.0 mi ESE 13.8 mph - N/A   Scattered Clouds
5:55 PM 87.6 °F 98.2 °F 75.7 °F 68% 29.89 in 10.0 mi ESE 17.3 mph - N/A   Clear
6:15 PM 86.9 °F 96.8 °F 75.6 °F 69% 29.87 in 10.0 mi ESE 16.1 mph 23.0 mph N/A   Clear
6:35 PM 86.5 °F 96.4 °F 75.9 °F 70% 29.87 in 10.0 mi ESE 18.4 mph - N/A   Clear
6:55 PM 86.4 °F 96.0 °F 75.7 °F 70% 29.87 in 10.0 mi SE 19.6 mph 25.3 mph N/A   Clear
7:15 PM 86.2 °F 96.4 °F 76.3 °F 72% 29.88 in 10.0 mi ESE 17.3 mph 21.9 mph N/A   Clear
7:35 PM 86.0 °F 96.4 °F 76.3 °F 73% 29.89 in 10.0 mi ESE 17.3 mph 21.9 mph N/A   Clear
7:55 PM 85.5 °F 95.4 °F 76.5 °F 74% 29.89 in 10.0 mi ESE 17.3 mph - N/A   Clear
8:15 PM 85.1 °F 94.9 °F 76.5 °F 75% 29.89 in 10.0 mi SE 15.0 mph - N/A   Clear
8:35 PM 84.7 °F 94.4 °F 76.5 °F 76% 29.90 in 10.0 mi SE 12.7 mph - N/A   Clear
8:55 PM 84.4 °F 94.2 °F 77.0 °F 78% 29.90 in 10.0 mi ESE 15.0 mph - N/A   Clear
9:15 PM 84.2 °F 94.1 °F 77.0 °F 79% 29.90 in 10.0 mi SE 11.5 mph - N/A   Clear
9:35 PM 83.7 °F 93.1 °F 77.0 °F 80% 29.90 in 10.0 mi SE 9.2 mph - N/A   Clear
9:55 PM 83.3 °F 92.4 °F 77.0 °F 81% 29.91 in 10.0 mi Calm Calm - N/A   Clear
10:15 PM 83.3 °F 92.4 °F 77.0 °F 81% 29.92 in 10.0 mi Calm Calm - N/A   Clear
10:35 PM 82.8 °F 91.6 °F 77.0 °F 83% 29.93 in 10.0 mi Calm Calm - N/A   Scattered Clouds
10:55 PM 82.6 °F 91.1 °F 77.0 °F 83% 29.93 in 10.0 mi Calm Calm - N/A   Scattered Clouds
11:15 PM 82.6 °F 91.4 °F 77.2 °F 84% 29.93 in 10.0 mi Calm Calm - N/A   Clear
11:35 PM 82.8 °F 91.9 °F 77.4 °F 84% 29.93 in 10.0 mi SE 3.5 mph - N/A   Clear
11:55 PM 82.4 °F 90.9 °F 77.2 °F 84% 29.94 in 10.0 mi Calm Calm - N/A   Clear